Hourly Data Report for September 02, 2017

All times are specified in Local Standard Time (LST). Add 1 hour to adjust for Daylight Saving Time where and when it is observed.

SANDY LAKE A
ONTARIO

53°03'51.000" N
93°20'40.000" W
289.90 m
6017401
71587
ZSJ

Related Data

No related data is available for this station

Download Data

Hourly Data (September 2017)
Hourly Data Report for September 2, 2017
Temp Definition
°C
Dew Point Temp Definition
°C
Rel Hum Definition
%
Wind Dir Definition
10's deg

Wind Spd Definition
km/h
Visibility Definition
km
Stn Press Definition
kPa
Hmdx Definition


Wind Chill Definition


Weather Definition


TIME
00:00 Legend Double Dagger 14.2 13.6 96 LegendMM LegendMM 16.1 97.10     LegendNANA
01:00 Legend Double Dagger 13.2 12.6 96 LegendMM LegendMM 14.5 97.17     LegendNANA
02:00 Legend Double Dagger 13.1 12.5 96 LegendMM LegendMM 16.1 97.18     LegendNANA
03:00 Legend Double Dagger 12.6 12.1 97 LegendMM LegendMM 1.2 97.18     Fog
04:00 Legend Double Dagger 12.3 12.0 98 LegendMM LegendMM 11.3 97.19     LegendNANA
05:00 Legend Double Dagger 12.1 11.6 97 LegendMM LegendMM 16.1 97.23     LegendNANA
06:00 Legend Double Dagger 12.1 11.5 96 LegendMM LegendMM 16.1 97.23     LegendNANA
07:00 Legend Double Dagger 13.5 12.9 96 LegendMM LegendMM 16.1 97.24     LegendNANA
08:00 Legend Double Dagger 15.2 13.7 91 LegendMM LegendMM 16.1 97.24     LegendNANA
09:00 Legend Double Dagger 16.9 14.8 87 LegendMM LegendMM 16.1 97.22     LegendNANA
10:00 Legend Double Dagger 18.6 14.5 77 LegendMM LegendMM 16.1 97.20     LegendNANA
11:00 Legend Double Dagger 19.3 15.0 76 LegendMM LegendMM 16.1 97.20     LegendNANA
12:00 Legend Double Dagger 21.5 14.1 62 LegendMM LegendMM 16.1 97.16 25   LegendNANA
13:00 Legend Double Dagger 22.1 11.5 51 LegendMM LegendMM 16.1 97.15     LegendNANA
14:00 Legend Double Dagger 22.9 10.0 43 LegendMM LegendMM 16.1 97.14     LegendNANA
15:00 Legend Double Dagger 22.8 11.1 47 LegendMM LegendMM 16.1 97.12 25   LegendNANA
16:00 Legend Double Dagger 22.0 9.5 44 LegendMM LegendMM 16.1 97.15     LegendNANA
17:00 Legend Double Dagger 21.5 10.1 48 LegendMM LegendMM 16.1 97.14     LegendNANA
18:00 Legend Double Dagger 20.5 9.3 48 LegendMM LegendMM 16.1 97.14     LegendNANA
19:00 Legend Double Dagger 18.3 9.9 58 LegendMM LegendMM 16.1 97.13     LegendNANA
20:00 Legend Double Dagger 17.5 9.6 60 LegendMM LegendMM 16.1 97.14     LegendNANA
21:00 Legend Double Dagger 16.8 9.3 61 LegendMM LegendMM 16.1 97.16     LegendNANA
22:00 Legend Double Dagger 15.7 9.4 66 LegendMM LegendMM 16.1 97.13     LegendNANA
23:00 Legend Double Dagger 15.4 9.4 67 LegendMM LegendMM 16.1 97.09     LegendNANA

Notes on Data Quality.

Legend

  • E = Estimated
  • M = Missing
  • NA = Not Available
  • ‡ = Partner data that is not subject to review by the National Climate Archives
Date modified: